Location: Pinhead Observatory
(34.4473°N, 118.1985°W)
Time: 19:20:51
(UTC-07:00)

Daily predictions for brighter satellites

Satellite Brightness Start Highest point End
(mag) Time Altitude Azimuth Time Altitude Azimuth Time Altitude Azimuth
Cosmos 773 Rocket 4.2 20:17:51 10° SSW 20:22:59 77° WNW 20:28:08 10° NNE
Cosmos 1975 2.9 20:21:55 10° N 20:25:57 66° E 20:30:01 10° SSE
Cosmos 1743 3.8 20:22:40 10° NNE 20:26:03 28° ENE 20:29:26 10° SE
Cosmos 1346 3.9 20:24:43 10° SSE 20:27:06 26° E 20:29:30 10° NE
ISS -3.4 20:24:27 10° SW 20:27:43 67° NW 20:31:01 10° NE
Cosmos 2112 Rocket 4.2 20:27:12 10° S 20:32:11 47° ESE 20:37:09 10° NNE
CZ-2D R/B 3.4 20:31:29 10° S 20:35:17 77° W 20:39:07 10° NNW
OAO 2 Rocket 3.3 20:33:09 10° W 20:38:05 84° N 20:43:05 10° E
SL-27 R/B 3.0 20:34:53 10° S 20:38:19 40° ESE 20:41:46 10° NNE
Helios 1A 3.5 20:36:01 10° SE 20:40:01 44° ENE 20:44:01 10° N
Spot 2 Rocket 3.7 20:36:20 10° S 20:41:21 74° WSW 20:46:24 10° NNW
H-2A R/B 4.4 20:39:19 10° SSW 20:42:40 33° W 20:46:02 10° NNW
Aureole 3 Rocket 3.9 20:36:11 10° S 20:42:48 55° E 20:47:30 10° NNE
YAOGAN 6 4.1 20:41:01 12° ESE 20:43:15 20° ENE 20:45:51 10° NNE
Cosmos 1939 Rocket 3.4 20:40:13 10° SE 20:43:47 37° ENE 20:47:22 10° N
Iridium 4 Rocket 4.3 20:42:26 10° N 20:47:34 59° W 20:53:05 10° SSW
Cosmos 1666 3.4 20:45:05 10° NNE 20:48:30 33° E 20:51:13 14° SE
USA 81 4.1 20:45:34 10° S 20:50:50 87° W 20:56:10 10° N
Cosmos 1437 3.9 20:48:28 10° SSW 20:51:34 45° W 20:54:42 10° N
Okean 1-7 Rocket 4.2 20:48:50 10° SSE 20:52:52 36° E 20:56:58 10° NNE
Cosmos 1680 Rocket 3.6 20:49:26 10° SSW 20:54:40 85° WNW 20:59:54 10° NNE
USA 186 2.8 20:55:09 10° S 20:58:14 44° W 21:01:16 10° NNW
Cosmos 1536 Rocket 4.5 20:55:34 10° SSW 20:59:45 50° W 21:03:58 10° N
Cosmos 1833 Rocket 4.2 21:00:38 15° ESE 21:01:26 15° E 21:04:31 10° ENE
Meteor 2-13 Rocket 4.4 20:55:56 10° N 21:01:59 66° E 21:07:52 11° SSE
Envisat 3.0 20:58:29 10° SSE 21:03:34 90° NE 21:08:40 10° NNW
DNEPR-1 R/B 3.9 20:59:54 10° NNW 21:04:08 55° ENE 21:07:16 20° SE
Helios 1B rocket 2.7 21:01:53 10° N 21:06:00 72° WNW 21:10:06 10° SSW
Cosmos 1656 Rocket 3.7 21:01:15 10° NNW 21:06:43 78° WSW 21:11:46 12° SSE
Meteor 2-4 Rocket 3.7 21:03:50 10° S 21:09:25 79° E 21:15:13 10° N
Hubble Space Telescope 2.9 21:09:04 10° S 21:09:49 12° S 21:09:49 12° S
COSMOS 2455 4.1 21:07:08 10° NW 21:12:35 37° WSW 21:18:00 10° S
Cosmos 192 4.4 21:08:04 10° SSW 21:12:58 80° WNW 21:17:53 10° NNE
Cosmos 405 3.5 21:09:47 10° N 21:13:09 40° E 21:14:29 28° SE
Cosmos 1025 Rocket 3.0 21:12:54 14° S 21:16:29 60° E 21:20:42 10° NNE
Intercosmos 24 4.5 21:13:19 10° NNE 21:16:38 32° E 21:17:39 27° ESE
COSMOS 2487 4.2 21:17:34 18° E 21:17:34 18° E 21:19:26 10° NE
GENESIS II 4.1 21:15:59 10° NNW 21:19:55 78° ENE 21:21:45 30° SE
Cosmos 1943 Rocket 4.5 21:25:10 10° WNW 21:28:56 19° W 21:32:40 10° SW
Tiangong 2 3.6 21:26:55 10° WNW 21:29:28 21° NNW 21:32:00 10° NE
Okean 2 3.2 21:30:06 25° S 21:32:24 71° E 21:36:29 10° NNE
Cosmos 1441 Rocket 4.1 21:29:37 10° SSW 21:33:13 47° W 21:36:50 10° N
NOSS 8 (F) 4.3 21:29:47 10° SSW 21:33:25 70° ESE 21:36:54 10° NE
Cosmos 2058 Rocket 4.3 21:30:00 10° NNE 21:33:38 24° ENE 21:34:09 24° E
Cosmos 2074 Rocket 4.5 21:30:08 10° NNW 21:36:16 61° W 21:42:25 10° S
Cosmos 2181 Rocket 4.3 21:34:12 25° SSE 21:37:41 49° E 21:43:42 10° NNE
Resurs 01 Rocket 4.4 21:39:17 10° WSW 21:41:04 12° W 21:42:50 10° WNW
Cosmos 1610 Rocket 4.5 21:34:55 10° N 21:41:12 84° W 21:45:36 20° S
Cosmos 1371 Rocket 4.0 21:36:37 10° NNW 21:41:56 70° ENE 21:44:07 35° SE
ARGOS 3.6 21:40:02 32° ESE 21:42:07 47° ENE 21:47:18 10° N
ERS-1 Rocket 2.9 21:41:27 29° SSE 21:44:05 89° W 21:49:07 10° NNW
Terra 3.7 21:46:50 15° ENE 21:47:19 15° ENE 21:49:58 10° NNE
SPOT 5 2.9 21:48:43 42° ESE 21:49:29 48° ENE 21:53:40 10° N
NOAA 11 4.1 21:47:13 33° SSE 21:49:47 80° ENE 21:55:13 10° N
H-2A R/B 4.1 21:52:19 15° ENE 21:52:29 15° ENE 21:55:04 10° NNE
NOSS 8 (H) 4.5 21:55:22 63° NE 21:55:22 63° NE 21:58:20 10° NNE
ASTRO E2 4.4 21:57:23 10° WSW 21:59:46 22° SW 21:59:46 22° SW
MetOp-B 4.1 21:59:38 39° S 22:01:44 87° WSW 22:07:07 10° NNW
Cosmos 962 Rocket 4.4 21:57:50 10° N 22:04:05 82° E 22:06:34 39° SSE
ISS -0.1 22:04:17 10° NNW 22:04:45 10° NNW 22:05:13 10° NNW
CENTAUR R/B 4.2 21:58:59 10° NW 22:06:17 37° WSW 22:12:04 17° SSW
Cosmos 2082 Rocket 2.1 22:05:18 36° S 22:07:39 71° ESE 22:13:18 10° NNE
Cosmos 2278 3.8 22:06:19 10° NNW 22:11:59 63° ENE 22:13:11 51° ESE
SL-24 DEB 4.1 22:14:20 64° S 22:15:02 86° W 22:19:41 10° N
MOS 1-B Rocket 4.2 22:16:58 35° SSW 22:19:22 62° W 22:25:34 10° NNW
H-2A R/B 1.8 22:21:04 65° ESE 22:21:30 69° ENE 22:26:29 10° N
SL-8 Rocket 4.0 22:15:29 10° N 22:21:44 68° E 22:23:08 53° SE
OAO 2 Rocket 3.1 22:17:58 10° W 22:22:55 77° SSW 22:23:02 77° S
Cosmos 2228 3.0 22:19:13 10° N 22:23:12 73° NNE 22:23:12 73° NNE
Meteor 1-4 Rocket 4.2 22:21:10 10° N 22:23:05 26° NNE 22:23:05 26° NNE
Cosmos 1624 Rocket 4.5 22:19:51 10° NNW 22:25:00 55° WSW 22:26:18 43° SSW
Cosmos 921 Rocket 3.0 22:21:45 10° NNW 22:26:11 78° W 22:26:11 78° W
Cosmos 2366 rocket 4.1 22:21:32 10° N 22:27:32 54° E 22:28:15 51° ESE
SL-08 RB Rocket 3.7 22:28:41 69° WSW 22:28:51 70° WSW 22:33:19 10° NNW
Cosmos 2369 3.6 22:26:05 10° NNW 22:31:50 88° WSW 22:32:38 68° SSE
Cosmos 1697 Rocket 3.2 22:26:56 10° N 22:32:18 44° ENE 22:32:41 44° ENE
Cosmos 1602 Rocket 4.1 22:38:10 50° NNE 22:38:10 50° NNE 22:41:27 10° N
Cosmos 1656 3.5 22:33:49 10° NNW 22:39:17 75° ENE 22:39:30 74° E
Cosmos 2056 Rocket 4.4 22:39:32 10° NW 22:44:14 37° W 22:45:00 34° WSW
Cosmos 1833 Rocket 3.1 22:42:12 31° SW 22:44:45 59° WNW 22:50:19 10° NNE
DMSP B5D2-2 4.1 22:41:44 10° N 22:47:02 78° WNW 22:47:29 72° SW
Cosmos 1269 Rocket 4.2 22:51:09 62° NE 22:51:09 62° NE 22:55:40 10° NNE
Cosmos 1959 Rocket 4.4 22:44:34 10° N 22:50:56 84° W 22:51:51 67° S
Timation 2 Rocket 3.9 22:53:45 55° SW 22:55:15 81° WNW 23:01:30 10° NNE
SL-08 R/B 4.3 22:55:52 10° N 23:01:59 78° W 23:02:27 73° SW
Cosmos 1048 Rocket 4.2 23:02:53 66° N 23:02:53 66° N 23:07:23 10° NNE
Cosmos 1420 Rocket 4.2 22:57:06 10° NNW 23:01:42 65° NNE 23:01:42 65° NNE
Tiangong 2 4.4 23:04:33 10° NW 23:05:23 14° NNW 23:05:23 14° NNW
Cosmos 2218 Rocket 4.2 23:02:08 10° NNW 23:08:10 59° W 23:08:53 56° WSW
Meteor 2-14 Rocket 4.3 23:03:54 10° N 23:09:58 87° WNW 23:09:58 87° WNW
SL-24 R/B - RUBIN 2 4.5 23:13:08 77° SW 23:13:40 87° WNW 23:20:19 10° NNE
Cosmos 1452 Rocket 4.2 23:11:13 10° NNW 23:15:45 47° W 23:15:45 47° W
Cosmos 1980 Rocket 2.5 23:15:01 10° NNW 23:19:54 60° NNE 23:19:54 60° NNE
Meteor 1-21 4.5 23:21:30 64° WNW 23:21:30 64° WNW 23:27:03 10° N
Terra 2.9 23:25:42 40° WNW 23:25:42 40° WNW 23:29:12 10° NNW
H-2A R/B 3.6 23:29:27 34° NW 23:29:27 34° NW 23:32:23 10° NNW
Cosmos 2322 Rocket 3.6 23:26:16 10° N 23:30:47 28° NE 23:30:47 28° NE
Nadezhda 3 Rocket 4.0 23:31:32 78° WNW 23:31:32 78° WNW 23:37:47 10° N
SeaSat 1 4.4 23:36:46 21° NE 23:36:46 21° NE 23:40:00 10° N
USA 267 3.1 23:34:00 10° NE 23:40:17 83° NE 23:40:17 83° NE
ATLAS CENTAUR R/B 4.2 23:42:46 10° N 23:43:11 12° NNE 23:43:11 12° NNE
Lacrosse 5 3.9 23:48:51 20° NE 23:48:51 20° NE 23:50:22 10° NE
Cosmos 1821 Rocket 4.2 23:45:09 10° N 23:50:40 69° NNE 23:50:40 69° NNE
